Voltar ao catálogo

STARLINK-5820

AtivoComunicaçõesVLEO
NORAD 55781·PAYLOAD·🇺🇸 United States

Lançado Mar 3, 2023 de Vandenberg Space Force Base

Loading…

Próximas Passagens (próximas 24 horas)

TLE

AtualizadoSource: CelesTrak SupGP

Época: Sep 14, 2026, 22:22 UTC

1 55781C 23028AS  26257.93243056 -.00004505  00000+0 -37752-3 0  2574
2 55781  70.0002 107.2492 0002753 270.1283  37.3050 14.98335817    10

Acompanhe STARLINK-5820 em tempo real com AllMySat

Download on the App Store